Вернуться в каталог

STARLINK-36721

АктивенСвязьVLEO
NORAD 67916·PAYLOAD·🇺🇸 United States

Запущен Feb 22, 2026 с Vandenberg Space Force Base

Loading…

Ближайшие Пролёты (ближайшие 24 часа)

TLE

СвежийSource: CelesTrak SupGP

Эпоха: Sep 14, 2026, 21:30 UTC

1 67916C 26036N   26257.89631944  .00036089  00000+0  13077-2 0  2574
2 67916  43.0013 256.4591 0001305 260.6656  31.6834 15.27548138    14

Отслеживайте STARLINK-36721 в реальном времени с AllMySat

Download on the App Store